sat.trackr.live / text

‹ back to catalog

FLOCK 4H-22

NORAD 66725 · 2025-276BM

PAYLOAD ACTIVE UNKNOWN

§ Identity

Operator
Country
US
Launch date
2025-11-28
Launch site
AFWTR
Launch vehicle
Mass (kg)
RCS (m²)

Purposes: earth_obs

External: N2YO · Heavens-Above · Gunter

§ Orbital elements

Epoch: 2026-05-25T03:24:00.861696Z

Period
94.75 min
Inclination
97.4177°
Eccentricity
0.0004319
Mean motion
15.19843854 rev/d
Perigee alt
503.3 km
Apogee alt
509.3 km
Semi-major
6,884.4 km
B*
2.8964e-4
RAAN
219.0368°
Arg perigee
106.8726°
Mean anomaly
253.2982°
Rev number
2,692

§ Raw data

FLOCK 4H-221 66725U 25276BM  26145.14167664  .00006144  00000+0  28964-3 0  99972 66725  97.4177 219.0368 0004319 106.8726 253.2982 15.19843854 26927

JSON: /api/v1/satellites/66725 · /tle

For live sub-satellite position, see the globe view (requires WebGL).

§ Visibility from observer

Set your observer location to see the next 7 days of passes ≥ 10°. The values pass through the URL so the page stays shareable.

No JS? Fill the form by hand. The geolocation button needs JavaScript.